Pope Field Airport, NC

2:42 AM EDT on September 20, 2017 (GMT -0400)
Pope Field Airport

Weather History for KPOB - February, 2014

Change the Weather History Date:

Monday, February 3, 2014

  Actual Average Record
Temperature  
Mean Temperature 58 °F -  
Max Temperature 72 °F 58 °F 84 °F (1989)
Min Temperature 41 °F 36 °F 20 °F (1980)
Degree Days  
Heating Degree Days 8    
Growing Degree Days 8 (Base 50)    
Moisture  
Dew Point 52 °F    
Average Humidity 88    
Maximum Humidity 100    
Minimum Humidity 59    
Precipitation  
Precipitation 0.01 in - - ()
Sea Level Pressure  
Sea Level Pressure 30.01 in    
Wind  
Wind Speed 7 mph (WSW)    
Max Wind Speed 21 mph    
Max Gust Speed 29 mph    
Visibility 9 miles    
Events Rain    
Averages and records for this station are not official NWS values.
T = Trace of Precipitation, MM = Missing Value Source: NWS Daily Summary

Daily Weather History Graph

Daily Weather History Graph

Search for Another Location

Airport or City:

Trip Planner

Search our weather history database for the weather conditions in past years. The results will help you decide how hot, cold, wet, or windy it might be!

Date:

Astronomy

Feb. 03, 2014 Rise Set
Actual Time 7:13 AM EST 5:46 PM EST
Civil Twilight 6:47 AM EST 6:13 PM EST
Nautical Twilight 6:16 AM EST 6:43 PM EST
Astronomical Twilight 5:47 AM EST 7:13 PM EST
Moon 9:26 AM EST (2/3) 10:22 PM EST (2/3)
Length of Visible Light 11h 26m
Length of Day
10h 33m
Waxing Crescent, 19% of the Moon is Illuminated
Feb 3
Waxing Crescent
Feb 6
First Quarter
Feb 14
Full
Feb 22
Last Quarter
Mar 1
New

Hourly Weather History & Observations

Time (EST) Temp. Windchill Dew Point Humidity Pressure Visibility Wind Dir Wind Speed Gust Speed Precip Events Conditions
12:08 AM 48.2 °F - 48.2 °F 100% 30.03 in 7.0 mi Calm Calm - N/A   Clear
12:13 AM 48.2 °F - 46.4 °F 93% 30.02 in 3.0 mi Calm Calm - N/A   Clear
12:18 AM 48.2 °F - 46.4 °F 93% 30.02 in 4.0 mi Calm Calm - N/A   Clear
12:23 AM 46.4 °F - 46.4 °F 100% 30.02 in 7.0 mi Calm Calm - N/A   Clear
12:28 AM 46.4 °F - 46.4 °F 100% 30.02 in 3.0 mi NNE 1.2 mph - N/A   Clear
12:33 AM 46.4 °F - 46.4 °F 100% 30.02 in 1.5 mi NE 2.3 mph - N/A   Scattered Clouds
12:38 AM 46.4 °F - 46.4 °F 100% 30.02 in 2.0 mi NNE 2.3 mph - N/A   Scattered Clouds
12:43 AM 46.4 °F - 46.4 °F 100% 30.02 in 9.0 mi North 1.2 mph - N/A   Scattered Clouds
12:48 AM 46.4 °F - 46.4 °F 100% 30.02 in 10.0 mi Calm Calm - N/A   Scattered Clouds
12:53 AM 46.4 °F - 46.4 °F 100% 30.02 in 8.0 mi NE 1.2 mph - N/A   Mostly Cloudy
12:58 AM 46.9 °F - 46.6 °F 99% 30.02 in 6.0 mi Calm Calm - N/A   Mostly Cloudy
1:08 AM 46.4 °F - 46.4 °F 100% 30.01 in 4.0 mi Variable 1.2 mph - N/A   Mostly Cloudy
1:13 AM 46.4 °F - 46.4 °F 100% 30.01 in 3.0 mi SE 2.3 mph - N/A   Mostly Cloudy
1:18 AM 46.4 °F - 46.4 °F 100% 30.00 in 4.0 mi SE 2.3 mph - N/A   Mostly Cloudy
1:23 AM 46.4 °F - 46.4 °F 100% 30.00 in 8.0 mi ESE 2.3 mph - N/A   Mostly Cloudy
1:28 AM 48.2 °F - 46.4 °F 93% 30.00 in 10.0 mi SE 3.5 mph - N/A   Mostly Cloudy
1:58 AM 51.6 °F - 50.2 °F 95% 30.01 in 10.0 mi South 2.3 mph - N/A   Overcast
2:58 AM 53.6 °F - 50.7 °F 90% 29.99 in 10.0 mi SSW 2.3 mph - N/A   Mostly Cloudy
3:58 AM 53.2 °F - 50.5 °F 91% 29.97 in 10.0 mi SSW 10.4 mph - N/A   Overcast
4:58 AM 54.0 °F - 51.4 °F 91% 29.95 in 10.0 mi SSW 11.5 mph - N/A   Mostly Cloudy
5:58 AM 54.7 °F - 52.9 °F 94% 29.95 in 10.0 mi SW 8.1 mph - N/A   Overcast
6:09 AM 53.6 °F - 53.6 °F 100% 29.94 in 10.0 mi SW 9.2 mph - N/A   Overcast
6:14 AM 53.6 °F - 53.6 °F 100% 29.94 in 10.0 mi SW 9.2 mph - N/A   Overcast
6:19 AM 55.4 °F - 53.6 °F 94% 29.94 in 10.0 mi SW 9.2 mph - N/A   Overcast
6:29 AM 55.4 °F - 53.6 °F 94% 29.94 in 10.0 mi SSW 9.2 mph - N/A   Overcast
6:58 AM 55.4 °F - 54.7 °F 97% 29.94 in 10.0 mi SSW 11.5 mph - N/A   Overcast
7:58 AM 60.3 °F - 59.2 °F 96% 29.93 in 10.0 mi SSW 12.7 mph 19.6 mph N/A   Overcast
8:03 AM 60.8 °F - 59.0 °F 94% 29.93 in 10.0 mi SW 13.8 mph - N/A   Overcast
8:13 AM 62.6 °F - 60.8 °F 94% 29.92 in 10.0 mi SW 12.7 mph - N/A   Overcast
8:23 AM 62.6 °F - 60.8 °F 94% 29.93 in 10.0 mi SW 11.5 mph - N/A   Overcast
8:33 AM 64.4 °F - 60.8 °F 88% 29.94 in 10.0 mi SW 12.7 mph - N/A   Overcast
8:43 AM 64.4 °F - 60.8 °F 88% 29.93 in 10.0 mi SW 12.7 mph - N/A   Overcast
8:58 AM 64.8 °F - 61.7 °F 90% 29.94 in 10.0 mi SW 13.8 mph - N/A   Overcast
9:52 AM 66.2 °F - 62.6 °F 88% 29.97 in 10.0 mi West 18.4 mph 23.0 mph N/A   Light Drizzle
9:58 AM 66.6 °F - 62.8 °F 88% 29.98 in 10.0 mi WSW 15.0 mph 23.0 mph 0.00 in Rain Light Rain
10:08 AM 66.2 °F - 62.6 °F 88% 29.97 in 10.0 mi WSW 16.1 mph - N/A   Overcast
10:13 AM 66.2 °F - 62.6 °F 88% 29.97 in 10.0 mi WSW 13.8 mph - N/A   Overcast
10:18 AM 66.2 °F - 62.6 °F 88% 29.98 in 10.0 mi WSW 13.8 mph - N/A   Overcast
10:21 AM 66.2 °F - 62.6 °F 88% 29.97 in 10.0 mi WSW 16.1 mph - N/A Rain Light Rain
10:26 AM 66.2 °F - 62.6 °F 88% 29.97 in 6.0 mi WSW 15.0 mph 24.2 mph N/A Rain Light Rain
10:27 AM 66.2 °F - 62.6 °F 88% 29.97 in 6.0 mi WSW 15.0 mph 24.2 mph N/A Rain Light Rain
10:32 AM 66.2 °F - 62.6 °F 88% 29.97 in 5.0 mi WSW 13.8 mph 24.2 mph N/A Rain Light Rain
10:58 AM 65.5 °F - 63.1 °F 92% 29.98 in 10.0 mi WSW 12.7 mph - 0.00 in   Light Drizzle
11:13 AM 66.2 °F - 62.6 °F 88% 29.97 in 10.0 mi WSW 12.7 mph 19.6 mph N/A   Overcast
11:53 AM 66.2 °F - 62.6 °F 88% 29.95 in 10.0 mi SW 19.6 mph 26.5 mph N/A   Mostly Cloudy
11:58 AM 66.9 °F - 62.2 °F 85% 29.96 in 10.0 mi WSW 18.4 mph 26.5 mph 0.01 in   Mostly Cloudy
12:00 PM 68.0 °F - 62.6 °F 83% 29.94 in 10.0 mi SW 20.7 mph 26.5 mph N/A   Mostly Cloudy
12:58 PM 71.4 °F - 61.9 °F 72% 29.93 in 10.0 mi WSW 20.7 mph 28.8 mph N/A   Scattered Clouds
1:58 PM 72.3 °F - 59.5 °F 64% 29.93 in 10.0 mi West 17.3 mph 24.2 mph N/A   Mostly Cloudy
2:58 PM 72.7 °F - 57.7 °F 59% 29.96 in 10.0 mi West 17.3 mph 23.0 mph N/A   Mostly Cloudy
3:24 PM 71.6 °F - 57.2 °F 60% 29.98 in 10.0 mi NW 15.0 mph - N/A   Mostly Cloudy
3:25 PM 71.6 °F - 57.2 °F 60% 29.98 in 10.0 mi North 18.4 mph 21.9 mph N/A   Overcast
3:58 PM 54.0 °F - 47.5 °F 79% 30.04 in 10.0 mi NNE 13.8 mph 27.6 mph N/A   Overcast
4:43 PM 51.8 °F - 44.6 °F 76% 30.06 in 10.0 mi NNE 16.1 mph 23.0 mph N/A   Mostly Cloudy
4:58 PM 52.2 °F - 43.7 °F 73% 30.08 in 10.0 mi NNE 12.7 mph 20.7 mph N/A   Overcast
5:58 PM 50.5 °F - 41.9 °F 72% 30.12 in 10.0 mi NNE 12.7 mph - N/A   Overcast
6:08 PM 50.0 °F - 41.0 °F 71% 30.12 in 10.0 mi NNE 18.4 mph 24.2 mph N/A   Overcast
6:58 PM 48.7 °F - 40.8 °F 74% 30.15 in 10.0 mi NNE 13.8 mph - N/A   Overcast
7:58 PM 47.3 °F - 40.1 °F 76% 30.19 in 10.0 mi NE 16.1 mph - N/A   Overcast
8:28 PM 46.4 °F 40.1 °F 39.2 °F 76% 30.20 in 10.0 mi NE 15.0 mph 19.6 mph N/A   Overcast
8:48 PM 46.4 °F 40.7 °F 39.2 °F 76% 30.20 in 10.0 mi NE 12.7 mph - N/A   Overcast
8:58 PM 46.8 °F - 39.9 °F 77% 30.21 in 10.0 mi NE 12.7 mph - N/A   Overcast
9:58 PM 45.3 °F 38.4 °F 38.1 °F 76% 30.23 in 10.0 mi NE 16.1 mph 20.7 mph N/A   Overcast
10:58 PM 43.5 °F 36.4 °F 36.9 °F 77% 30.26 in 10.0 mi NE 15.0 mph - N/A   Overcast
11:58 PM 41.5 °F 35.4 °F 36.0 °F 81% 30.25 in 10.0 mi NE 10.4 mph - N/A   Partly Cloudy